Location: Hopewell Observatory
(38.8698°N, 77.6988°W)
Time: 04:50:28
(UTC-04:00)

Daily predictions for brighter satellites

Satellite Brightness Start Highest point End
(mag) Time Altitude Azimuth Time Altitude Azimuth Time Altitude Azimuth
Cosmos 836 Rocket 4.3 00:05:32 10° NNW 00:10:51 89° ENE 00:11:03 84° SSE
Cosmos 304 Rocket 3.7 00:06:57 10° NNW 00:11:32 81° N 00:11:32 81° N
Cosmos 2058 4.5 00:12:00 27° W 00:12:28 28° WNW 00:16:06 10° NNW
Cosmos 1455 3.3 00:10:04 10° NNW 00:12:57 42° NW 00:12:57 42° NW
Cosmos 1666 Rocket 3.9 00:14:40 60° NE 00:14:40 60° NE 00:18:26 10° N
H-2A R/B 4.4 00:12:35 10° WSW 00:14:44 13° W 00:17:00 10° WNW
Cosmos 1844 Rocket 3.7 00:16:14 31° E 00:16:14 31° E 00:20:16 10° NE
Cosmos 1943 3.7 00:14:57 10° NW 00:20:19 45° WSW 00:20:39 44° WSW
Cosmos 1503 Rocket 4.5 00:19:42 47° WSW 00:20:37 53° WNW 00:25:42 10° N
Tsikada Rocket 4.1 00:23:22 58° ESE 00:24:05 62° E 00:30:21 10° NNE
Cosmos 1805 Rocket 4.2 00:26:04 49° WNW 00:26:04 49° WNW 00:29:55 10° N
CZ-2C R/B 3.2 00:28:02 70° ESE 00:28:35 76° ENE 00:34:20 10° N
Lacrosse 5 3.2 00:26:20 10° WNW 00:29:38 29° W 00:29:38 29° W
Cosmos 1633 Rocket 3.6 00:33:49 57° N 00:33:49 57° N 00:37:20 10° N
H-2A R/B 4.5 00:37:37 13° W 00:37:37 13° W 00:39:35 10° WNW
Cosmos 2242 Rocket 4.0 00:43:27 10° N 00:47:18 62° N 00:47:18 62° N
Cosmos 1816 Rocket 4.3 00:50:25 73° S 00:51:06 85° E 00:57:26 10° N
Cosmos 968 Rocket 3.5 00:53:51 80° NNW 00:53:51 80° NNW 00:58:56 10° NNE
CZ-2C R/B 2.8 00:50:19 10° N 00:55:34 61° WNW 00:55:49 60° W
Cosmos 1470 Rocket 4.2 01:01:55 54° N 01:01:55 54° N 01:05:24 10° N
Cosmos 2278 Rocket 3.3 01:03:25 32° E 01:03:25 32° E 01:07:46 10° NE
BREEZE-M DEB 4.3 00:52:53 10° WSW 01:04:06 55° NW 01:07:26 10° NE
Meteor 1-26 Rocket 4.4 00:59:10 10° N 01:04:37 56° ENE 01:04:49 56° E
Cosmos 1844 3.7 01:07:55 70° E 01:07:55 70° E 01:13:16 10° NNE
H-2A R/B 4.5 01:04:30 10° NE 01:07:06 22° ENE 01:07:06 22° ENE
Cosmos 1538 Rocket 4.1 01:07:56 10° NNW 01:13:18 74° ENE 01:13:18 74° ENE
SL-24 R/B - RUBIN 2 4.2 01:10:10 10° NNW 01:15:34 61° NE 01:15:38 61° ENE
COSMOS 2406 3.1 01:13:21 10° NNW 01:19:01 86° WSW 01:19:01 86° WSW
ALOS 2 4.1 01:23:03 29° WNW 01:23:03 29° WNW 01:25:52 10° NNW
Cosmos 2279 Rocket 4.4 01:17:08 10° N 01:23:13 51° E 01:24:20 45° ESE
CZ-4C R/B 2.5 01:22:53 52° W 01:23:37 56° NW 01:29:26 10° NNE
Meteor 2-10 Rocket 3.8 01:22:00 10° NNW 01:27:04 61° W 01:27:04 61° W
CZ-4B R/B 3.5 01:31:59 28° N 01:31:59 28° N 01:33:50 10° N
Cosmos 292 Rocket 4.3 01:27:01 10° NNW 01:30:47 51° NW 01:30:47 51° NW
Cosmos 1315 Rocket 4.1 01:34:45 37° NNW 01:34:45 37° NNW 01:37:19 10° N
Landsat 5 4.2 01:36:20 53° NNE 01:36:20 53° NNE 01:39:39 10° N
Meteor 2-3 Rocket 3.6 01:36:55 80° SW 01:37:11 84° W 01:43:02 10° N
Cosmos 2082 Rocket 4.2 01:32:54 10° N 01:37:15 23° NE 01:41:11 12° ESE
ATLAS 3B R/B 4.1 01:41:11 25° ESE 01:42:05 26° ESE 01:47:50 10° ENE
Cosmos 1825 4.0 01:46:15 26° ENE 01:46:15 26° ENE 01:48:32 10° NNE
Cosmos 773 Rocket 4.2 01:48:22 10° NNW 01:53:04 61° WNW 01:53:04 61° WNW
Cosmos 1782 3.9 01:50:57 10° N 01:54:05 43° NE 01:54:05 43° NE
Cosmos 1634 Rocket 4.2 01:49:43 10° NNW 01:55:40 51° W 01:56:07 50° WSW
Cosmos 1408 4.2 01:59:38 32° NE 01:59:38 32° NE 02:01:48 10° NNE
Cosmos 1844 Rocket 3.9 01:57:52 29° W 01:59:09 32° WNW 02:04:08 10° N
Timation 1 Rocket 4.2 01:59:59 73° SSE 02:00:28 79° ESE 02:06:28 10° NNE
Cosmos 44 Rocket 4.1 02:02:28 41° E 02:02:28 41° E 02:06:18 10° NE
Cosmos 1680 Rocket 3.5 01:59:45 10° NNW 02:05:02 73° ENE 02:05:27 69° ESE
Cosmos 1346 Rocket 4.1 02:07:10 10° NNW 02:09:34 34° NW 02:09:34 34° NW
Helios 1A Rocket 4.0 02:07:50 10° NNE 02:11:08 39° ENE 02:11:08 39° ENE
Cosmos 2180 Rocket 4.4 02:08:18 10° N 02:14:37 77° W 02:15:39 63° SSW
Resurs 1-4 Rocket 4.3 02:14:02 10° ENE 02:16:56 15° E 02:19:00 12° ESE
Cosmos 1092 Rocket 4.4 02:16:54 43° SE 02:18:32 55° E 02:24:38 10° NNE
Cosmos 2221 Rocket 4.3 02:15:38 10° NNW 02:19:08 46° NW 02:19:08 46° NW
Cosmos 1898 Rocket 3.6 02:22:53 58° ESE 02:23:13 59° ESE 02:28:22 10° NNE
Cosmos 1607 3.8 02:24:03 63° S 02:25:03 77° ESE 02:31:19 10° NE
SeaSat 1 3.2 02:26:04 30° ESE 02:28:08 49° ENE 02:32:55 10° NNW
CZ-2D R/B 4.0 02:28:22 10° NE 02:32:21 21° E 02:34:34 16° SE
USA 238 DEB 4.4 02:31:18 35° SSE 02:33:04 40° ESE 02:39:30 10° NE
USA 238 4.4 02:31:24 34° SE 02:33:11 40° ESE 02:39:36 10° NE
Cosmos 1606 3.9 02:33:25 10° NNW 02:36:01 36° NW 02:36:01 36° NW
ARIANE 5 R/B 4.4 02:35:03 10° NE 02:38:37 19° E 02:40:37 16° ESE
SL-08 R/B 4.2 02:39:19 32° ESE 02:41:07 46° ENE 02:45:43 10° N
Cosmos 1932 4.5 02:40:33 52° SW 02:42:17 83° WNW 02:48:53 10° NNE
Cosmos 1340 3.2 02:39:49 10° N 02:43:13 57° NE 02:43:13 57° NE
H-2A R/B 3.8 02:39:40 10° N 02:43:37 30° WNW 02:43:43 30° WNW
CBERS-1 4.4 02:41:12 10° NNE 02:46:16 56° E 02:47:21 46° SE
Cosmos 2278 Rocket 3.3 02:45:15 29° W 02:46:46 33° WNW 02:51:53 10° N
Cosmos 858 Rocket 4.3 02:51:18 65° SSW 02:52:05 86° WNW 02:57:19 10° NNE
Nadezhda 4 Rocket 4.2 02:50:39 46° SW 02:52:10 56° W 02:58:23 10° N
IRS-P3 4.1 02:50:23 10° NNE 02:55:46 82° ESE 02:57:02 54° S
CZ-3B DEB 4.4 02:43:26 10° NW 02:56:41 70° NE 03:07:58 10° ESE
Cosmos 1833 Rocket 2.6 02:51:10 10° NNW 02:56:51 89° WSW 02:58:54 41° SSE
Cosmos 2369 Rocket 4.1 02:54:36 15° SE 02:57:16 20° E 03:01:15 10° NE
NPP 3.6 02:52:32 10° NNE 02:57:57 80° ESE 02:59:20 51° S
GP-B 3.0 02:59:22 10° N 03:03:49 82° E 03:04:28 65° SSE
COSMOS 2487 2.8 03:00:27 10° NNW 03:03:26 61° NNW 03:03:26 61° NNW
Cosmos 2297 4.1 03:04:57 40° WSW 03:06:31 52° WNW 03:12:04 10° NNE
SL-16 R/B 3.1 03:01:34 14° SE 03:06:44 55° ENE 03:12:48 10° N
Cosmos 2298 Rocket 4.1 03:07:34 50° SW 03:08:47 66° WNW 03:14:05 10° NNE
USA 267 4.0 03:07:12 10° ENE 03:13:16 39° SE 03:15:50 29° S
NOSS 3-2 (A) 4.5 03:11:19 25° SSE 03:13:49 34° ESE 03:19:28 10° NE
Cosmos 1975 Rocket 4.4 03:11:54 10° N 03:15:55 36° ENE 03:18:42 17° SE
Cosmos 1812 4.2 03:13:00 10° NNE 03:16:33 34° ENE 03:18:28 21° SE
Cosmos 1733 Rocket 3.9 03:19:01 34° W 03:19:16 34° WNW 03:23:17 10° NNW
Exosat Rocket 4.1 03:13:41 10° NNW 03:19:20 69° WSW 03:24:03 24° S
Cosmos 2150 Rocket 4.3 03:19:04 42° SW 03:20:40 59° WNW 03:26:05 10° N
Cosmos 1825 4.4 03:21:09 14° WNW 03:21:09 14° WNW 03:22:54 10° NW
ADEOS Rocket 3.4 03:13:36 10° NNE 03:21:17 89° E 03:25:04 32° SSW
Cosmos 2082 Rocket 2.3 03:16:12 10° NNW 03:21:38 51° WSW 03:22:59 42° SSW
BREEZE-M DEB (TANK) 4.5 03:18:10 33° SW 03:21:44 89° SE 03:51:29 10° ENE
Meteor 1-14 Rocket 4.5 03:20:22 32° S 03:23:13 72° E 03:29:11 10° NNE
ATLAS 3B R/B 3.0 03:28:26 30° SW 03:32:19 66° NW 03:39:30 10° NNE
Cosmos 44 4.4 03:32:00 25° W 03:33:34 31° NW 03:37:35 10° N
Sich 1 Rocket 3.9 03:38:43 41° SW 03:39:56 53° W 03:44:26 10° N
S3M 4.0 03:34:17 10° N 03:40:31 77° E 03:45:40 15° SSE
ERS-1 4.5 03:38:21 10° N 03:43:34 79° WNW 03:46:01 32° SSW
ADEOS 3.6 03:40:06 10° NNE 03:45:22 83° ESE 03:48:13 28° S
AQUA 4.5 03:41:26 10° N 03:45:53 41° WNW 03:47:29 30° WSW
Gbstr 26 Del rocket 4.2 03:45:07 21° SSE 03:45:54 22° SE 03:48:51 10° ENE
Okean 3 3.8 03:42:45 10° NNW 03:46:48 45° W 03:47:41 39° SW
Cosmos 1417 Rocket 4.4 03:41:10 10° N 03:47:16 72° W 03:51:20 22° S
Timation 2 Rocket 4.1 03:46:01 10° NW 03:51:53 51° WSW 03:56:12 19° S
Cosmos 1633 3.2 03:54:43 23° SSE 03:56:42 52° E 04:00:15 10° NNE
Resurs 1-4 Rocket 2.2 03:51:54 10° N 03:57:11 64° WNW 04:00:04 27° SSW
Okean 1 3.7 03:54:07 10° N 03:58:10 63° E 04:01:41 13° SSE
BREEZE-M DEB (TANK) 3.3 03:56:48 22° SW 04:02:21 67° SE 04:05:40 10° ENE
BREEZE M DEB (TANK) 2.4 04:04:03 27° SE 04:04:05 27° SE 04:06:04 10° ENE
MOS 1 Rocket 3.6 03:58:47 10° NNE 04:04:11 79° ESE 04:08:01 18° S
BREEZE-M DEB (TANK) 2.2 04:04:04 34° W 04:05:01 62° NNW 04:10:18 10° NE
SeaSat 1 3.8 04:05:50 20° WSW 04:05:51 20° WSW 04:09:28 10° WNW
BREEZE-M R/B 4.3 04:01:42 10° NW 04:07:37 44° NNE 04:10:47 10° E
Okean 2 Rocket 3.1 04:05:26 27° SSW 04:07:41 63° W 04:12:04 10° N
CZ-2D R/B 2.6 04:07:28 10° N 04:12:36 47° WNW 04:15:54 21° SW
Cosmos 1125 Rocket 3.6 04:11:41 23° SSW 04:15:03 69° WNW 04:20:21 10° NNE
ARIANE 5 R/B 3.0 04:13:12 10° N 04:17:56 44° WNW 04:20:57 21° SW
Cosmos 1441 Rocket 4.1 04:14:21 10° N 04:18:16 52° ENE 04:22:10 10° SSE
Cosmos 1553 Rocket 4.3 04:12:41 10° NNW 04:18:46 49° W 04:23:53 15° SSW
CZ-2D R/B 3.6 04:17:18 10° N 04:21:43 81° WNW 04:25:07 17° SSW
USA 238 DEB 4.5 04:18:44 16° WSW 04:23:58 42° NW 04:30:35 10° NNE
USA 238 4.5 04:18:50 16° WSW 04:24:04 42° NW 04:30:41 10° NNE
Cosmos 1300 Rocket 4.4 04:22:40 10° SSE 04:26:56 51° E 04:31:16 10° NNE
UNKNOWN OBJECT B 2.9 04:24:09 10° N 04:27:48 53° WNW 04:30:09 20° SW
IRS-1D 4.5 04:23:26 10° N 04:27:56 32° WNW 04:31:04 17° WSW
CZ-3A R/B 4.3 04:31:03 15° SW 04:36:37 27° S 05:05:25 10° SE
Cosmos 1943 Rocket 2.3 04:33:05 12° SSW 04:38:18 83° ESE 04:43:58 10° NNE
Okean O Rocket 3.0 04:35:23 10° NNE 04:39:28 37° E 04:43:32 10° SSE
Cosmos 2369 Rocket 2.5 04:36:24 16° SW 04:40:49 52° WNW 04:46:19 10° NNE
PSLV R/B 3.4 04:41:01 18° SW 04:43:17 58° SSE 04:46:33 10° E
Cosmos 1269 Rocket 4.1 04:40:28 10° NNW 04:45:38 55° WSW 04:50:47 10° S
Meteor 1-19 Rocket 4.2 04:40:24 10° N 04:46:02 84° W 04:51:43 10° S
Cosmos 405 Rocket 3.4 04:43:06 10° NNW 04:46:45 35° W 04:50:18 10° SSW
COSMOS 2455 2.9 04:44:20 12° SSW 04:50:01 83° WNW 04:56:04 10° NNE
CZ-3B DEB 4.1 04:38:18 10° NW 04:50:33 49° WSW 05:00:09 10° S
SL-16 R/B 3.7 04:46:39 12° SW 04:50:39 22° W 04:55:23 10° NW
ADEOS II 2.4 04:47:41 10° NNE 04:52:58 69° ESE 04:58:11 10° S
Cosmos 2151 Rocket 4.3 04:51:49 11° SW 04:55:46 38° WNW 05:00:01 10° N
USA 267 3.7 04:49:59 10° NE 04:56:22 57° NW 05:02:44 10° WSW
deb Kosmos-1763 4.0 04:54:44 10° NNW 04:58:30 76° WSW 05:02:15 10° SSE
Cosmos 1656 Rocket 4.3 04:54:58 10° S 05:00:12 53° ESE 05:05:29 10° NNE
USA 161 2.0 04:59:07 10° SSW 05:01:11 28° W 05:03:24 10° NNW
Cosmos 1536 2.8 04:59:08 10° SSW 05:03:05 70° W 05:07:04 10° N
NOSS 3-2 (C) 3.9 04:57:46 10° SW 05:03:33 52° NW 05:09:59 10° NNE
NOSS 3-2 (A) 4.3 04:58:50 10° WSW 05:04:29 41° NW 05:10:42 10° NNE
Cosmos 494 Rocket 4.3 05:00:54 10° NNW 05:06:12 76° ENE 05:11:26 10° SSE
Cosmos 1833 4.4 05:03:15 10° NNW 05:09:06 83° ENE 05:14:54 10° SSE
Cosmos 2344 4.3 05:06:20 10° WSW 05:13:39 47° NW 05:21:57 10° NNE
Cosmos 1536 Rocket 4.5 05:12:19 10° NNW 05:16:17 31° W 05:20:13 10° SSW
Cosmos 2315 Rocket 4.4 05:12:01 10° NNW 05:17:58 46° W 05:23:52 10° SSW
